Location: Morgantown
(40.9734°N, 80.6323°W)
Time: 23:35:20
(UTC+00:00)

SL-08 R/B - Pass Details

Date: 29 October 2020
Orbit: 946 x 994 km, 83.0° (Epoch: 03 December)

Event Time Altitude Azimuth Distance (km) Brightness Sun altitude
Rises 23:15:48 0° 355° (N) 3,652 7.5 -10.8°
Reaches altitude 10° 23:18:21 10° 359° (N) 2,696 6.7 -11.3°
Maximum altitude 23:24:28 64° 81° (E) 1,046 4.4 -12.4°
Drops below altitude 10° 23:30:29 10° 162° (SSE) 2,659 6.7 -13.6°
Sets 23:32:58 0° 165° (SSE) 3,599 7.4 -14.0°
